• In Portugal
  • List of Countries
  • For 7 days
  • Water Temperature
  • Satellite Maps
  • Weather Map
  • Weather Widgets
  • user-avatar
    Login

    Hourly Weather Ordino

    Today, 16 December, Saturday

    Time Temperature Precipitation Wind Pressure Humidity
    00:00 -7°C° 0 mm 3 mps 625 mmHg 78%
    01:00 -6°C° 0.1 mm 3 mps 626 mmHg 79%
    02:00 -6°C° 0.1 mm 3 mps 626 mmHg 80%
    03:00 -6°C° 0.1 mm 3 mps 626 mmHg 81%
    04:00 -6°C° 0 mm 3 mps 627 mmHg 81%
    05:00 -7°C° 0 mm 3 mps 627 mmHg 81%
    06:00 -6°C° 0 mm 2 mps 627 mmHg 83%
    07:00 -6°C° 0 mm 2 mps 628 mmHg 79%
    08:00 -6°C° 0 mm 3 mps 629 mmHg 74%
    09:00 -5°C° 0 mm 3 mps 630 mmHg 70%
    10:00 -4°C° 0 mm 3 mps 630 mmHg 65%
    11:00 -4°C° 0 mm 3 mps 631 mmHg 60%
    12:00 -3°C° 0 mm 4 mps 631 mmHg 54%
    13:00 -2°C° 0 mm 3 mps 632 mmHg 56%
    14:00 -2°C° 0 mm 3 mps 632 mmHg 58%
    15:00 -4°C° 0 mm 3 mps 632 mmHg 59%
    16:00 -5°C° 0 mm 3 mps 632 mmHg 64%
    17:00 -6°C° 0 mm 3 mps 632 mmHg 68%
    18:00 -8°C° 0 mm 3 mps 632 mmHg 73%
    19:00 -8°C° 0.1 mm 3 mps 632 mmHg 74%
    20:00 -8°C° 0.1 mm 3 mps 633 mmHg 74%
    21:00 -8°C° 0.1 mm 3 mps 633 mmHg 75%
    22:00 -8°C° 0.1 mm 3 mps 633 mmHg 76%
    23:00 -8°C° 0.1 mm 3 mps 634 mmHg 76%

    Tomorrow, 17 December, Sunday

    Time Temperature Precipitation Wind Pressure Humidity
    00:00 -8°C° 0.1 mm 3 mps 634 mmHg 77%
    01:00 -8°C° 0 mm 3 mps 634 mmHg 77%
    02:00 -8°C° 0 mm 3 mps 634 mmHg 77%
    03:00 -9°C° 0 mm 3 mps 634 mmHg 77%
    04:00 -9°C° 0 mm 3 mps 634 mmHg 76%
    05:00 -9°C° 0 mm 3 mps 634 mmHg 75%
    06:00 -10°C° 0 mm 3 mps 634 mmHg 73%
    07:00 -8°C° 0 mm 3 mps 635 mmHg 71%
    08:00 -7°C° 0 mm 3 mps 636 mmHg 68%
    09:00 -6°C° 0 mm 3 mps 637 mmHg 65%
    10:00 -5°C° 0 mm 3 mps 637 mmHg 61%
    11:00 -2°C° 0 mm 3 mps 638 mmHg 58%
    12:00 -2°C° 0 mm 4 mps 638 mmHg 54%
    13:00 -1°C° 0 mm 3 mps 638 mmHg 58%
    14:00 -1°C° 0 mm 3 mps 638 mmHg 61%
    15:00 -2°C° 0 mm 3 mps 638 mmHg 64%
    16:00 -2°C° 0 mm 3 mps 638 mmHg 69%
    17:00 -4°C° 0 mm 3 mps 638 mmHg 73%
    18:00 -5°C° 0 mm 3 mps 638 mmHg 77%
    19:00 -5°C° 0 mm 3 mps 638 mmHg 79%
    20:00 -5°C° 0 mm 3 mps 638 mmHg 80%
    21:00 -5°C° 0 mm 3 mps 639 mmHg 81%
    22:00 -5°C° 0 mm 3 mps 639 mmHg 81%
    23:00 -5°C° 0 mm 3 mps 639 mmHg 81%

    Day after tomorrow, 18 December, Monday

    Time Temperature Precipitation Wind Pressure Humidity
    00:00 -5°C° 0 mm 3 mps 639 mmHg 82%
    01:00 -5°C° 0 mm 3 mps 639 mmHg 81%
    02:00 -6°C° 0 mm 3 mps 639 mmHg 81%
    03:00 -6°C° 0 mm 3 mps 639 mmHg 81%
    04:00 -6°C° 0 mm 3 mps 639 mmHg 81%
    05:00 -6°C° 0 mm 3 mps 639 mmHg 81%
    06:00 -6°C° 0 mm 3 mps 639 mmHg 81%
    07:00 -5°C° 0 mm 3 mps 639 mmHg 78%
    08:00 -4°C° 0 mm 3 mps 640 mmHg 75%
    09:00 -2°C° 0 mm 3 mps 641 mmHg 72%
    10:00 0°C° 0 mm 3 mps 641 mmHg 71%
    11:00 +1°C° 0 mm 3 mps 641 mmHg 69%
    12:00 +2°C° 0 mm 3 mps 641 mmHg 67%
    13:00 +2°C° 0.1 mm 3 mps 640 mmHg 70%
    14:00 +1°C° 0.1 mm 3 mps 640 mmHg 73%
    15:00 +1°C° 0.1 mm 3 mps 639 mmHg 75%
    16:00 0°C° 0.2 mm 3 mps 639 mmHg 78%
    17:00 0°C° 0.2 mm 3 mps 638 mmHg 81%
    18:00 -1°C° 0.2 mm 3 mps 638 mmHg 84%
    19:00 0°C° 0.4 mm 3 mps 638 mmHg 85%
    20:00 -1°C° 0.4 mm 4 mps 638 mmHg 86%
    21:00 -1°C° 0.4 mm 4 mps 638 mmHg 87%
    22:00 -1°C° 0.3 mm 4 mps 638 mmHg 87%
    23:00 -1°C° 0.3 mm 4 mps 638 mmHg 88%

    19 December, Tuesday

    Time Temperature Precipitation Wind Pressure Humidity
    00:00 -1°C° 0.3 mm 4 mps 638 mmHg 88%
    01:00 -1°C° 0.2 mm 4 mps 638 mmHg 89%
    02:00 -2°C° 0.2 mm 4 mps 638 mmHg 89%
    03:00 -2°C° 0.2 mm 4 mps 638 mmHg 90%
    04:00 -3°C° 0 mm 4 mps 638 mmHg 89%
    05:00 -2°C° 0 mm 3 mps 638 mmHg 89%
    06:00 -4°C° 0 mm 3 mps 638 mmHg 89%
    07:00 -4°C° 0 mm 3 mps 639 mmHg 86%
    08:00 -3°C° 0 mm 2 mps 639 mmHg 83%
    09:00 -2°C° 0 mm 2 mps 640 mmHg 80%
    10:00 -1°C° 0 mm 2 mps 641 mmHg 74%
    11:00 +1°C° 0 mm 2 mps 641 mmHg 68%
    12:00 +2°C° 0 mm 2 mps 642 mmHg 62%
    13:00 +2°C° 0 mm 2 mps 642 mmHg 65%
    14:00 +2°C° 0 mm 2 mps 641 mmHg 67%
    15:00 +1°C° 0 mm 2 mps 641 mmHg 70%
    16:00 -1°C° 0 mm 2 mps 641 mmHg 75%
    17:00 -3°C° 0 mm 2 mps 640 mmHg 80%
    18:00 -5°C° 0 mm 2 mps 640 mmHg 85%
    19:00 -5°C° 0 mm 2 mps 640 mmHg 82%
    20:00 -5°C° 0 mm 2 mps 641 mmHg 79%
    21:00 -6°C° 0 mm 2 mps 641 mmHg 76%
    22:00 -6°C° 0 mm 2 mps 641 mmHg 73%
    23:00 -6°C° 0 mm 2 mps 641 mmHg 71%

    20 December, Wednesday

    Time Temperature Precipitation Wind Pressure Humidity
    00:00 -6°C° 0 mm 2 mps 641 mmHg 68%
    01:00 -6°C° 0 mm 2 mps 641 mmHg 66%
    02:00 -6°C° 0 mm 2 mps 641 mmHg 65%
    03:00 -6°C° 0 mm 2 mps 641 mmHg 63%
    04:00 -6°C° 0 mm 2 mps 641 mmHg 62%
    05:00 -6°C° 0 mm 2 mps 641 mmHg 61%
    06:00 -6°C° 0 mm 2 mps 641 mmHg 60%
    07:00 -4°C° 0 mm 2 mps 642 mmHg 58%
    08:00 -3°C° 0 mm 2 mps 643 mmHg 56%
    09:00 -2°C° 0 mm 2 mps 644 mmHg 54%
    10:00 +1°C° 0 mm 2 mps 644 mmHg 54%
    11:00 +2°C° 0 mm 2 mps 644 mmHg 53%
    12:00 +4°C° 0 mm 2 mps 645 mmHg 53%
    13:00 +4°C° 0 mm 2 mps 644 mmHg 57%
    14:00 +3°C° 0 mm 2 mps 644 mmHg 61%
    15:00 +3°C° 0 mm 2 mps 644 mmHg 64%
    16:00 +1°C° 0 mm 2 mps 643 mmHg 67%
    17:00 -1°C° 0 mm 2 mps 643 mmHg 69%
    18:00 -3°C° 0 mm 2 mps 643 mmHg 72%
    19:00 -3°C° 0 mm 2 mps 643 mmHg 70%
    20:00 -3°C° 0 mm 2 mps 643 mmHg 69%
    21:00 -3°C° 0 mm 2 mps 643 mmHg 67%
    22:00 -3°C° 0 mm 2 mps 643 mmHg 68%
    23:00 -3°C° 0 mm 2 mps 643 mmHg 68%

    21 December, Thursday

    Time Temperature Precipitation Wind Pressure Humidity
    00:00 -3°C° 0 mm 2 mps 643 mmHg 68%
    01:00 -3°C° 0 mm 2 mps 643 mmHg 69%
    02:00 -3°C° 0 mm 2 mps 643 mmHg 69%
    03:00 -3°C° 0 mm 2 mps 643 mmHg 69%
    04:00 -3°C° 0 mm 2 mps 643 mmHg 70%
    05:00 -3°C° 0 mm 2 mps 643 mmHg 70%
    06:00 -3°C° 0 mm 2 mps 643 mmHg 70%
    07:00 -2°C° 0 mm 2 mps 643 mmHg 69%
    08:00 +1°C° 0 mm 2 mps 644 mmHg 67%
    09:00 +3°C° 0 mm 1 mps 645 mmHg 65%
    10:00 +4°C° 0 mm 1 mps 645 mmHg 63%
    11:00 +6°C° 0 mm 1 mps 645 mmHg 61%
    12:00 +7°C° 0 mm 1 mps 646 mmHg 59%
    13:00 +6°C° 0 mm 1 mps 645 mmHg 62%
    14:00 +6°C° 0 mm 1 mps 645 mmHg 65%
    15:00 +5°C° 0 mm 1 mps 644 mmHg 68%
    16:00 +4°C° 0 mm 1 mps 644 mmHg 72%
    17:00 +2°C° 0 mm 1 mps 644 mmHg 76%
    18:00 -1°C° 0 mm 2 mps 643 mmHg 79%
    19:00 -2°C° 0 mm 2 mps 643 mmHg 78%
    20:00 -2°C° 0 mm 2 mps 643 mmHg 77%
    21:00 -2°C° 0 mm 2 mps 643 mmHg 75%
    22:00 -2°C° 0 mm 2 mps 643 mmHg 74%
    23:00 -2°C° 0 mm 2 mps 643 mmHg 74%
    Show more